Weather History for KEMP - April, 2014

Change the Weather History Date:

Tuesday, April 1, 2014

  Actual Average Record
Temperature  
Mean Temperature 41 °F 51 °F  
Max Temperature 54 °F 64 °F 90 °F (2012)
Min Temperature 27 °F 39 °F 27 °F (2014)
Degree Days  
Heating Degree Days 24 14  
Month to date heating degree days 24 14  
Since 1 July heating degree days 5088 4446  
Cooling Degree Days 0 0  
Month to date cooling degree days 0 0  
Year to date cooling degree days 0 2  
Moisture  
Dew Point 25 °F    
Average Humidity 60    
Maximum Humidity 85    
Minimum Humidity 35    
Precipitation  
Precipitation 0.00 in 0.06 in 0.10 in (2006)
Month to date precipitation 0.00 0.06  
Year to date precipitation 0.90 4.45  
Sea Level Pressure  
Sea Level Pressure 30.02 in    
Wind  
Wind Speed 8 mph (NE)    
Max Wind Speed 17 mph    
Max Gust Speed 20 mph    
Visibility 8 miles    
Events      
T = Trace of Precipitation, MM = Missing Value Source: NWS Daily Summary

Daily Weather History Graph

Daily Weather History Graph

Search for Another Location

Airport or City:

Trip Planner

Search our weather history database for the weather conditions in past years. The results will help you decide how hot, cold, wet, or windy it might be!

Date:

Astronomy

Apr. 01, 2014 Rise Set
Actual Time 7:09 AM CDT 7:48 PM CDT
Civil Twilight 6:43 AM CDT 8:14 PM CDT
Nautical Twilight 6:11 AM CDT 8:46 PM CDT
Astronomical Twilight 5:39 AM CDT 9:18 PM CDT
Moon 8:14 AM CDT (4/1) 10:09 PM CDT (4/1)
Length of Visible Light 13h 31m
Length of Day
12h 38m
Waxing Crescent, 5% of the Moon is Illuminated
Apr 1
Waxing Crescent
Apr 7
First Quarter
Apr 15
Full
Apr 22
Last Quarter
Apr 29
New

Hourly Weather History & Observations

Time (CDT) Temp. Windchill Dew Point Humidity Pressure Visibility Wind Dir Wind Speed Gust Speed Precip Events Conditions
12:53 AM 35.1 °F 27.4 °F 19.9 °F 54% 30.05 in 10.0 mi NNW 10.4 mph - N/A   Clear
1:53 AM 32.0 °F 24.2 °F 19.9 °F 61% 30.06 in 10.0 mi NNW 9.2 mph - N/A   Clear
2:53 AM 32.0 °F 25.6 °F 21.0 °F 64% 30.08 in 10.0 mi NNW 6.9 mph - N/A   Clear
3:53 AM 30.0 °F 23.2 °F 21.0 °F 69% 30.08 in 10.0 mi NNW 6.9 mph - N/A   Clear
4:53 AM 28.0 °F 20.8 °F 19.9 °F 72% 30.08 in 10.0 mi NNW 6.9 mph - N/A   Clear
5:53 AM 27.0 °F 19.5 °F 21.0 °F 78% 30.08 in 10.0 mi NNW 6.9 mph - N/A   Clear
6:53 AM 28.0 °F 24.2 °F 21.9 °F 78% 30.09 in 10.0 mi NNW 3.5 mph - N/A   Clear
7:53 AM 28.9 °F - 24.1 °F 82% 30.12 in 8.0 mi Calm Calm - N/A   Clear
8:53 AM 34.0 °F 28.0 °F 21.9 °F 61% 30.13 in 10.0 mi NE 6.9 mph - N/A   Overcast
9:53 AM 35.1 °F 32.2 °F 21.9 °F 59% 30.14 in 10.0 mi ENE 3.5 mph - N/A   Overcast
10:53 AM 37.0 °F 31.0 °F 23.0 °F 57% 30.14 in 10.0 mi ENE 8.1 mph - N/A   Overcast
11:53 AM 41.0 °F 35.2 °F 24.1 °F 51% 30.12 in 10.0 mi ENE 9.2 mph - N/A   Overcast
12:53 PM 45.0 °F 40.1 °F 24.1 °F 44% 30.10 in 10.0 mi East 9.2 mph - N/A   Overcast
1:53 PM 46.9 °F - 25.0 °F 42% 30.08 in 2.0 mi ENE 10.4 mph - N/A   Haze
2:25 PM 48.0 °F - 25.0 °F 41% 30.03 in 4.0 mi Variable 4.6 mph - N/A   Haze
2:53 PM 50.0 °F - 26.1 °F 39% 30.04 in 5.0 mi East 8.1 mph - N/A   Haze
3:53 PM 53.1 °F - 27.0 °F 37% 29.99 in 6.0 mi East 8.1 mph - N/A   Haze
4:53 PM 52.0 °F - 26.1 °F 37% 29.97 in 3.0 mi East 15.0 mph - N/A   Haze
5:53 PM 51.1 °F - 27.0 °F 39% 29.96 in 8.0 mi East 16.1 mph - N/A   Overcast
6:53 PM 51.1 °F - 27.0 °F 39% 29.96 in 7.0 mi East 13.8 mph - N/A   Overcast
7:39 PM 50.0 °F - 28.0 °F 43% 29.93 in 8.0 mi East 11.5 mph - N/A   Overcast
7:53 PM 48.9 °F - 28.0 °F 44% 29.96 in 8.0 mi East 12.7 mph - N/A   Overcast
8:24 PM 48.9 °F - 28.0 °F 44% 29.94 in 9.0 mi East 11.5 mph - N/A   Overcast
8:53 PM 48.9 °F - 28.0 °F 44% 29.96 in 7.0 mi East 9.2 mph - N/A   Overcast
9:27 PM 46.9 °F - 28.0 °F 48% 29.94 in 10.0 mi NE 8.1 mph - N/A   Overcast
9:48 PM 46.4 °F 42.4 °F 28.4 °F 50% 29.94 in 9.0 mi ENE 8.1 mph - N/A   Overcast
9:53 PM 46.9 °F - 28.9 °F 50% 29.97 in 9.0 mi ENE 8.1 mph - N/A   Overcast
10:40 PM 48.0 °F - 30.0 °F 50% 29.95 in 9.0 mi ENE 6.9 mph - N/A   Overcast
10:53 PM 48.0 °F - 30.0 °F 50% 29.96 in 9.0 mi ENE 9.2 mph - N/A   Overcast
11:41 PM 48.0 °F - 30.9 °F 52% 29.94 in 9.0 mi ENE 5.8 mph - N/A   Overcast
11:53 PM 48.0 °F - 30.9 °F 52% 29.96 in 8.0 mi ENE 6.9 mph - N/A   Overcast